Location: Unnamed
(48.6007°N, 2.4808°E)
Time: 10:13:58
(UTC+01:00)

Tiangong - Visible Passes

Search period start: 08 December 2022 00:00
Search period end: 18 December 2022 00:00
Orbit: 386 x 392 km, 41.5° (Epoch: 08 December)

Date Brightness Start Highest point End Pass type
(mag) Time Alt. Az. Time Alt. Az. Time Alt. Az.
08 Dec 0.2 18:22:03 10° WSW 18:24:27 20° S 18:26:51 10° SE visible
09 Dec 0.8 19:01:11 10° SW 19:02:33 12° SSW 19:03:53 10° S visible
10 Dec 0.7 18:02:16 10° SW 18:04:17 16° SSW 18:06:19 10° SSE visible
12 Dec 1.1 17:42:20 10° SW 17:43:31 12° SSW 17:44:41 10° S visible
